Wind_Speed
14 15 15 15 13 12 10 10 9 9 8 7 6 4 3 2 3 6 8 8 9 9 8 8 7 6 6 5 4 3 2 2 1 1 1 1 1 2 2 2 2 3 3
14 14 14 15 14 11 10 9 9 8 7 6 5 3 3 3 4 6 8 9 9 9 10 9 9 8 8 7 5 5 4 3 3 2 2 2 2 3 3 3 4 3 3
14 14 14 14 12 10 9 9 9 8 7 6 4 3 3 4 5 6 7 9 10 10 10 10 11 10 9 9 8 7 6 5 5 4 4 4 4 4 4 4 5 5 5
13 14 13 13 11 10 9 10 9 8 6 6 5 4 4 4 5 6 7 9 10 10 11 11 12 12 11 10 9 8 8 7 7 6 6 6 6 6 6 6 6 6 6
12 14 14 13 12 11 10 10 9 7 6 5 5 5 4 4 4 5 7 9 10 11 11 11 12 13 12 12 11 10 9 9 8 8 8 8 8 8 8 8 8 8 8
13 15 14 12 12 11 10 10 8 7 6 6 6 5 5 5 6 6 7 8 10 12 12 13 13 13 13 12 12 12 11 10 10 10 9 9 9 9 9 9 9 9 9
13 14 13 11 11 11 10 9 8 7 7 7 7 6 6 6 7 6 7 8 9 11 12 13 14 14 14 13 13 13 13 13 12 12 12 11 12 12 12 11 11 11 12
13 12 12 12 11 10 9 9 8 7 7 7 7 6 6 6 6 6 7 8 10 11 12 13 14 14 14 14 14 14 14 14 15 15 15 15 15 15 15 15 15 15 14
10 11 12 12 11 10 10 9 9 8 7 7 7 6 6 6 6 6 7 9 10 11 12 13 14 15 15 15 15 15 16 16 16 16 17 17 18 18 18 18 18 17 17
11 11 12 12 11 10 9 10 9 9 8 8 7 6 6 6 6 6 7 8 9 10 12 13 14 14 15 16 16 16 17 17 18 18 18 19 20 20 21 21 21 21 20
11 11 12 12 11 11 10 10 10 9 9 8 8 8 7 7 6 6 6 7 9 10 11 11 12 13 15 16 17 18 18 18 19 19 20 20 21 22 22 23 23 23 24
11 11 13 13 12 11 11 11 10 9 9 9 9 8 8 7 7 7 7 7 8 8 9 11 12 14 15 16 17 19 19 20 20 21 22 22 23 24 24 24 24 25 26
12 12 13 13 12 12 12 11 10 10 9 9 9 9 9 9 8 8 8 8 9 10 10 11 13 15 16 17 18 19 20 20 21 22 23 23 24 25 25 25 26 26 27
13 13 12 13 13 12 12 11 11 10 10 10 10 9 10 10 9 9 10 10 11 11 12 13 14 16 17 18 19 20 21 21 22 23 23 24 25 26 25 26 27 27 28
13 13 13 14 13 12 12 12 11 11 11 11 11 11 11 12 12 12 12 12 13 14 14 15 16 18 19 20 21 22 23 23 23 23 24 24 25 26 26 27 27 28 28
14 14 14 14 14 12 12 13 13 13 13 12 12 13 13 14 14 14 14 15 15 15 16 17 17 19 20 21 22 23 24 24 24 24 24 25 26 27 28 28 29 29 30
16 16 16 16 15 14 13 14 14 14 14 14 15 15 15 16 16 15 16 17 17 17 17 18 18 19 19 20 21 22 22 23 24 25 25 26 27 28 29 29 29 30 31
17 17 17 17 16 16 15 15 15 15 16 16 16 16 16 17 18 17 18 18 19 19 19 19 19 20 20 20 21 22 23 23 24 25 26 27 28 28 29 29 30 31 31
18 18 18 18 17 17 17 17 17 17 17 17 17 17 18 18 18 19 19 20 20 20 20 21 21 20 21 22 22 23 24 25 26 27 27 27 27 28 29 30 31 32 33
20 20 20 19 19 19 19 19 20 19 19 19 19 19 19 19 19 20 20 20 21 21 21 22 22 23 23 23 23 24 25 26 26 26 27 27 28 29 30 31 32 33 34
22 23 22 21 21 21 21 21 21 20 20 19 19 20 20 20 20 21 22 22 22 22 23 23 23 24 24 24 24 25 26 26 27 28 29 30 30 30 32 33 33 34 34
24 24 23 23 23 22 22 20 20 20 20 20 20 20 21 21 22 23 23 23 24 24 24 24 24 24 24 24 25 26 27 28 29 29 29 30 31 32 32 33 33 34 34
25 26 25 25 23 23 21 20 20 21 21 22 21 21 22 23 24 24 24 25 25 25 25 25 25 25 25 25 27 28 29 30 29 29 30 30 31 32 32 32 33 33 34
26 25 25 25 24 23 22 21 21 21 21 22 22 23 24 24 24 25 25 26 26 26 26 25 26 26 26 27 28 29 30 30 29 30 31 31 32 32 32 32 32 34 35
25 25 26 25 25 25 24 22 21 21 21 22 22 23 23 24 24 25 25 25 26 26 26 26 26 26 27 28 27 28 29 29 30 30 30 31 31 32 32 32 34 34 35
26 26 25 25 24 24 23 22 21 21 22 22 23 23 24 24 25 25 25 25 26 26 26 26 26 26 27 27 28 28 29 29 30 30 31 31 31 31 32 33 33 34 35
Wind_Direction
351 348 348 348 346 344 343 344 343 345 340 335 334 322 292 266 235 232 231 227 219 217 217 219 220 219 220 221 225 233 229 221 230 256 274 292 293 293 296 307 309 296 291
349 345 346 344 345 347 347 345 342 344 343 334 334 320 295 276 263 253 238 230 226 222 219 222 223 224 224 225 229 234 236 239 249 257 266 271 278 286 287 290 298 296 290
346 348 347 344 342 343 342 342 338 335 333 329 331 321 298 286 265 251 240 232 228 226 221 223 224 227 229 229 232 233 238 243 249 259 263 269 274 277 286 289 293 293 292
338 340 342 342 340 337 336 337 337 333 328 319 310 309 298 286 266 252 245 234 232 232 227 229 229 229 232 234 237 236 240 246 252 258 265 270 275 279 283 285 285 287 288
333 339 340 338 335 332 332 334 334 332 328 329 317 310 304 297 281 254 241 238 236 237 234 233 233 233 233 234 237 239 242 248 253 257 263 268 273 279 284 283 280 280 281
333 336 332 332 332 331 332 332 332 330 329 329 320 313 307 298 282 258 244 242 243 239 235 235 236 233 233 235 239 242 243 248 253 257 261 267 273 278 280 280 279 278 278
332 334 332 330 335 334 336 335 335 331 327 326 322 311 310 297 279 261 251 245 247 243 240 238 238 235 235 238 242 245 246 249 253 256 260 264 269 275 276 275 276 276 277
328 334 337 336 334 334 334 336 336 334 330 327 329 323 313 300 287 271 260 253 251 247 244 243 240 240 240 242 246 246 249 253 256 258 259 263 266 269 270 272 274 275 277
332 335 338 337 334 331 330 330 330 330 331 328 325 320 317 304 291 277 264 256 254 252 250 247 247 244 242 247 250 251 253 256 258 260 261 264 266 266 267 269 272 273 274
327 333 334 336 331 328 324 324 323 324 323 323 322 318 314 306 290 281 271 257 256 257 253 252 249 248 249 250 252 252 255 258 261 263 266 266 267 266 266 267 269 270 272
318 325 328 332 326 322 321 320 321 322 321 319 318 315 310 307 300 291 284 273 266 263 258 255 255 255 256 253 254 257 259 262 264 266 268 268 268 267 269 270 270 270 271
312 313 318 322 321 319 317 315 316 321 323 322 321 316 317 312 304 295 289 281 275 271 267 262 261 262 263 262 262 263 263 266 268 267 268 268 269 270 270 272 270 270 271
303 308 313 317 317 315 314 310 310 314 317 316 315 314 316 316 307 301 291 285 282 278 274 270 267 266 266 266 266 267 267 269 271 271 272 271 270 269 271 271 271 272 273
296 302 307 311 310 309 308 306 304 305 307 306 305 305 306 309 309 305 300 289 283 281 278 275 271 269 269 268 269 270 269 270 273 273 275 274 273 272 272 273 273 274 275
289 296 307 312 307 302 300 299 299 299 299 298 296 296 297 299 301 301 299 294 287 283 281 280 276 273 272 271 273 274 273 270 273 275 277 279 276 275 276 274 275 276 277
286 290 302 308 302 298 297 297 295 296 294 292 293 292 292 293 294 295 293 293 291 288 284 282 280 276 273 273 274 275 275 274 274 275 278 277 277 278 277 276 276 278 280
285 291 297 306 301 294 294 294 293 293 292 290 291 291 289 289 289 290 290 289 288 286 285 283 281 279 277 277 276 275 276 277 276 276 279 280 280 279 279 278 277 278 280
285 291 294 298 298 299 296 295 291 288 288 288 289 289 289 289 288 288 289 290 290 287 285 284 283 281 279 280 280 278 277 279 280 281 282 281 281 281 281 280 280 279 280
287 290 290 292 296 297 300 298 292 287 283 283 286 288 288 288 288 287 289 290 290 289 286 286 283 284 282 280 280 279 279 280 280 282 283 283 283 282 282 282 283 283 283
285 288 290 292 293 292 295 297 293 288 281 282 285 285 286 286 287 288 289 291 290 288 286 285 283 284 283 283 283 283 283 283 283 284 285 285 285 284 284 284 284 284 284
283 286 290 291 293 291 290 291 290 286 282 282 286 284 284 285 286 288 289 290 289 288 288 287 286 284 283 282 282 282 282 284 285 286 286 286 286 287 287 286 285 285 285
281 283 287 289 290 291 288 286 284 283 283 282 282 283 283 285 287 288 289 290 291 288 287 287 286 284 282 282 283 284 285 285 287 287 288 287 287 288 288 288 287 286 286
278 280 283 284 286 289 288 282 282 282 284 282 280 281 283 284 286 287 288 289 290 289 288 287 285 284 284 284 284 285 287 288 288 288 289 290 289 289 289 289 289 289 289
277 279 282 282 284 287 285 285 284 282 282 281 281 281 283 284 284 285 287 288 289 288 288 287 286 286 286 286 286 287 288 290 290 291 292 291 291 290 291 292 291 292 293
273 279 283 284 285 284 282 282 282 281 280 282 284 284 285 285 285 286 287 288 288 287 287 287 286 286 288 289 288 289 289 289 290 292 293 293 292 292 293 293 294 295 295
272 278 282 282 282 280 278 279 279 281 282 283 284 286 286 285 286 286 286 287 287 287 287 287 288 290 290 291 291 292 292 292 292 292 293 293 294 294 295 295 296 297 297
Height
5904 5902 5900 5897 5895 5892 5891 5890 5889 5887 5885 5885 5884 5884 5884 5884 5885 5886 5887 5888 5890 5891 5892 5894 5895 5897 5898 5898 5899 5900 5900 5901 5901 5901 5902 5902 5902 5902 5902 5901 5901 5901 5901
5903 5901 5899 5897 5894 5892 5891 5889 5888 5886 5885 5884 5884 5883 5883 5884 5884 5885 5886 5887 5888 5890 5891 5893 5894 5896 5897 5898 5898 5899 5900 5900 5901 5901 5901 5901 5902 5901 5901 5901 5901 5901 5901
5902 5900 5898 5896 5893 5891 5890 5889 5887 5886 5885 5884 5883 5882 5882 5883 5883 5884 5884 5885 5887 5888 5890 5891 5893 5894 5896 5897 5898 5898 5899 5900 5900 5900 5901 5901 5901 5901 5901 5900 5900 5900 5900
5901 5899 5897 5895 5892 5891 5889 5888 5886 5885 5884 5882 5882 5881 5881 5882 5882 5883 5883 5884 5886 5887 5888 5890 5891 5893 5894 5895 5896 5897 5898 5898 5899 5899 5899 5900 5900 5900 5900 5900 5899 5899 5899
5899 5898 5895 5893 5891 5890 5888 5887 5885 5884 5883 5882 5881 5881 5880 5881 5881 5881 5882 5883 5884 5885 5887 5888 5889 5890 5892 5893 5894 5895 5896 5897 5897 5897 5898 5898 5898 5898 5898 5898 5898 5898 5898
5897 5895 5894 5892 5890 5888 5887 5885 5884 5883 5882 5881 5880 5880 5879 5879 5880 5880 5881 5881 5882 5883 5884 5886 5887 5888 5890 5891 5892 5893 5894 5895 5895 5896 5896 5896 5896 5896 5896 5896 5895 5895 5896
5895 5893 5892 5890 5889 5887 5886 5884 5883 5882 5881 5881 5879 5878 5878 5878 5878 5878 5879 5879 5880 5881 5882 5883 5884 5886 5887 5888 5889 5890 5891 5892 5893 5893 5894 5894 5894 5894 5893 5893 5893 5893 5893
5893 5892 5891 5889 5888 5887 5885 5884 5883 5882 5881 5879 5878 5877 5877 5876 5876 5876 5876 5877 5877 5878 5879 5881 5882 5883 5884 5886 5887 5888 5888 5889 5890 5890 5891 5891 5891 5891 5891 5890 5890 5890 5890
5892 5891 5889 5888 5887 5886 5885 5883 5882 5881 5880 5879 5877 5876 5876 5875 5875 5875 5874 5874 5875 5876 5877 5878 5879 5880 5881 5883 5884 5884 5885 5886 5886 5887 5887 5887 5887 5887 5887 5887 5887 5887 5886
5891 5890 5888 5887 5886 5885 5884 5883 5881 5880 5879 5878 5876 5875 5875 5874 5874 5873 5873 5873 5873 5874 5874 5875 5876 5877 5878 5879 5880 5881 5881 5882 5883 5883 5883 5883 5883 5883 5883 5882 5882 5882 5882
5889 5888 5887 5886 5884 5883 5882 5881 5880 5879 5877 5876 5875 5875 5874 5873 5872 5872 5872 5871 5871 5872 5872 5873 5873 5873 5874 5875 5876 5877 5878 5878 5878 5878 5878 5878 5878 5877 5877 5877 5876 5876 5876
5887 5886 5885 5884 5882 5881 5880 5879 5878 5877 5876 5875 5874 5873 5873 5872 5871 5870 5870 5870 5870 5870 5870 5870 5870 5871 5871 5871 5872 5872 5873 5873 5873 5873 5873 5872 5872 5871 5871 5871 5870 5870 5869
5885 5884 5883 5881 5880 5879 5878 5877 5876 5875 5874 5873 5873 5872 5871 5870 5870 5869 5868 5868 5868 5867 5867 5867 5867 5867 5867 5867 5868 5868 5868 5868 5868 5867 5867 5866 5865 5865 5865 5865 5864 5864 5863
5882 5881 5880 5879 5878 5877 5876 5875 5874 5873 5872 5872 5871 5870 5870 5869 5868 5867 5866 5865 5865 5865 5864 5864 5864 5864 5863 5863 5863 5863 5863 5863 5862 5862 5861 5860 5859 5859 5859 5858 5858 5857 5856
5879 5878 5878 5877 5875 5874 5873 5873 5872 5871 5870 5869 5869 5868 5867 5867 5866 5865 5864 5863 5862 5862 5861 5860 5860 5860 5859 5859 5858 5858 5857 5856 5856 5856 5855 5854 5853 5852 5852 5851 5851 5850 5849
5876 5876 5875 5874 5872 5871 5871 5870 5869 5868 5867 5867 5866 5865 5865 5864 5863 5862 5861 5860 5859 5858 5857 5857 5856 5855 5854 5853 5853 5852 5851 5850 5850 5849 5849 5848 5847 5846 5845 5844 5843 5843 5841
5873 5872 5872 5871 5869 5868 5867 5866 5866 5865 5864 5864 5863 5862 5861 5860 5859 5859 5858 5857 5855 5854 5853 5852 5852 5851 5850 5849 5847 5846 5845 5845 5844 5843 5843 5842 5840 5839 5838 5837 5836 5835 5833
5869 5869 5868 5867 5865 5864 5863 5862 5861 5861 5860 5859 5859 5858 5857 5856 5855 5854 5853 5852 5851 5850 5849 5847 5846 5845 5844 5843 5842 5841 5840 5839 5838 5837 5836 5835 5833 5832 5830 5829 5827 5826 5825
5864 5864 5863 5862 5861 5860 5859 5858 5857 5856 5855 5855 5854 5853 5853 5852 5851 5850 5849 5847 5846 5845 5844 5842 5841 5840 5839 5838 5837 5835 5834 5833 5832 5830 5829 5828 5826 5825 5823 5821 5819 5818 5816
5859 5858 5857 5857 5856 5855 5854 5853 5852 5851 5850 5850 5849 5848 5847 5847 5846 5845 5843 5842 5841 5840 5838 5837 5836 5835 5833 5832 5830 5829 5828 5826 5825 5823 5822 5820 5819 5817 5815 5813 5811 5809 5807
5853 5852 5852 5851 5850 5849 5848 5847 5846 5846 5845 5845 5844 5843 5842 5841 5840 5839 5838 5837 5835 5834 5832 5831 5829 5828 5827 5825 5824 5822 5821 5819 5818 5816 5814 5813 5811 5809 5807 5805 5802 5800 5798
5847 5846 5846 5846 5845 5843 5842 5841 5840 5840 5840 5839 5838 5837 5836 5835 5834 5833 5832 5830 5829 5827 5826 5825 5823 5822 5820 5819 5817 5816 5814 5812 5811 5809 5807 5805 5803 5801 5798 5796 5793 5791 5788
5841 5841 5840 5840 5839 5837 5836 5835 5835 5834 5834 5833 5832 5831 5830 5829 5828 5826 5825 5824 5822 5821 5819 5818 5816 5815 5813 5812 5810 5809 5807 5805 5803 5801 5799 5797 5795 5792 5790 5787 5784 5782 5779
5834 5834 5833 5833 5832 5831 5830 5829 5828 5828 5828 5827 5826 5825 5824 5823 5821 5820 5819 5817 5816 5814 5812 5811 5809 5808 5806 5805 5803 5801 5799 5797 5795 5793 5791 5788 5786 5784 5781 5778 5776 5773 5770
5827 5827 5826 5826 5825 5824 5824 5823 5822 5821 5822 5821 5820 5819 5817 5816 5815 5814 5812 5810 5809 5807 5806 5804 5802 5801 5799 5797 5795 5793 5791 5789 5787 5785 5783 5780 5778 5775 5772 5769 5767 5764 5761
5819 5819 5819 5818 5818 5817 5817 5816 5816 5816 5816 5815 5814 5812 5811 5810 5808 5807 5805 5804 5802 5801 5799 5797 5795 5793 5792 5790 5788 5786 5784 5782 5779 5777 5775 5772 5769 5767 5764 5761 5758 5754 5751